Date String (YYYY-MM-DD hh:mm:ss) UTC,Instrument flags,Ambient pressure (hPa),Sample flow (lpm),Bypass flow (lpm),Sample temperature (°C),Ambient temperature (°C),ASC tube jacket temperature (°C),LED temperature (°C),Box temperature (°C),Sample RH (%),Span deviation,Mass concentration (μg/m³),Mass concentration (μg/m³),Mass concentration (μg/m³)
DateTimeUTC,F1_M11,P_M11,Q1_M11,Q2_M11,T1_M11,T2_M11,T3_M11,T4_M11,T5_M11,U1_M11,ZSPAN_M11,X0_M11,X2_M11,X1_M11
2021-10-01 08:00:00,,0831.7,5.01,0.00,28.8,28.0,00.0,37.9,30.6,19.2,0000.0,0008.07,0003.90,0003.33
2021-10-01 08:01:00,,0831.7,4.99,0.00,28.8,28.0,00.0,37.9,30.6,19.3,0000.0,0008.05,0003.90,0003.32
2021-10-01 08:02:00,,0831.7,4.99,0.00,28.9,28.0,00.0,37.9,30.6,19.2,0000.0,0008.23,0003.90,0003.33
2021-10-01 08:03:00,,0831.8,5.01,0.00,28.9,28.0,00.0,37.9,30.6,19.3,0000.0,0008.26,0003.90,0003.34
2021-10-01 08:04:00,,0831.8,5.00,0.00,28.9,28.0,00.0,37.9,30.7,19.5,0000.0,0008.29,0003.90,0003.35
2021-10-01 08:05:00,,0831.7,5.00,0.00,28.9,28.0,00.0,38.0,30.7,19.5,0000.0,0008.28,0003.90,0003.37
2021-10-01 08:06:00,,0831.7,5.00,0.00,28.9,28.0,00.0,38.0,30.7,19.2,0000.0,0008.18,0003.87,0003.37
2021-10-01 08:07:00,,0831.7,5.00,0.00,28.9,28.0,00.0,38.0,30.7,19.2,0000.0,0008.78,0003.86,0003.39
2021-10-01 08:08:00,,0831.7,5.01,0.00,28.9,28.0,00.0,38.0,30.6,19.3,0000.0,0009.53,0003.85,0003.40
2021-10-01 08:09:00,,0831.7,4.99,0.00,28.9,28.0,00.0,38.0,30.7,19.5,0000.0,0009.68,0003.84,0003.40
2021-10-01 08:10:00,,0831.7,4.99,0.00,28.9,28.0,00.0,38.0,30.7,19.5,0000.0,0009.68,0003.84,0003.39
2021-10-01 08:11:00,,0831.7,5.01,0.00,28.9,28.0,00.0,38.0,30.7,19.4,0000.0,0009.56,0003.86,0003.39
2021-10-01 08:12:00,,0831.7,5.00,0.00,28.9,28.0,00.0,38.0,30.6,19.3,0000.0,0009.15,0003.92,0003.40
2021-10-01 08:13:00,,0831.8,5.00,0.00,28.9,28.0,00.0,38.0,30.6,19.2,0000.0,0008.98,0003.91,0003.39
2021-10-01 08:14:00,,0831.7,5.00,0.00,28.9,28.0,00.0,38.0,30.7,19.1,0000.0,0009.25,0003.92,0003.38
2021-10-01 08:15:00,,0831.7,5.00,0.00,28.9,28.0,00.0,38.0,30.6,19.1,0000.0,0010.07,0003.94,0003.37
2021-10-01 08:16:00,,0831.8,5.00,0.00,28.9,28.0,00.0,38.0,30.6,19.2,0000.0,0010.63,0003.94,0003.35
2021-10-01 08:17:00,,0831.7,5.02,0.00,28.9,27.9,00.0,38.0,30.6,19.1,0000.0,0010.59,0003.96,0003.35
2021-10-01 08:18:00,,0831.7,5.00,0.00,28.9,27.9,00.0,38.0,30.6,19.1,0000.0,0009.76,0003.92,0003.35
2021-10-01 08:19:00,,0831.7,5.00,0.00,28.9,27.9,00.0,38.0,30.6,19.1,0000.0,0008.93,0003.92,0003.33
2021-10-01 08:20:00,,0831.7,4.99,0.00,28.9,27.9,00.0,38.0,30.6,19.2,0000.0,0009.04,0003.98,0003.34
2021-10-01 08:21:00,,0831.7,5.00,0.00,28.9,27.9,00.0,38.0,30.6,19.1,0000.0,0009.18,0004.00,0003.33
2021-10-01 08:22:00,,0831.7,5.01,0.00,28.9,27.9,00.0,38.0,30.6,19.0,0000.0,0009.81,0004.00,0003.32
2021-10-01 08:23:00,,0831.7,5.01,0.00,28.9,27.9,00.0,38.0,30.6,19.0,0000.0,0009.88,0003.97,0003.33
2021-10-01 08:24:00,,0831.7,4.99,0.00,28.9,27.9,00.0,38.0,30.7,18.9,0000.0,0009.86,0003.95,0003.33
2021-10-01 08:25:00,,0831.7,5.00,0.00,28.9,27.9,00.0,38.0,30.6,18.9,0000.0,0010.14,0003.91,0003.33
2021-10-01 08:26:00,,0831.7,5.00,0.00,28.9,27.9,00.0,38.0,30.6,18.9,0000.3,0009.22,0003.86,0003.33
2021-10-01 08:27:00,,0831.7,5.01,0.00,28.9,27.9,00.0,38.0,30.6,18.9,0001.0,0008.75,0003.87,0003.32
2021-10-01 08:28:00,,0831.7,5.01,0.00,28.9,27.9,00.0,38.0,30.6,18.8,0000.9,0008.74,0003.84,0003.30
2021-10-01 08:29:00,,0831.6,4.98,0.00,28.9,27.9,00.0,38.0,30.6,19.1,0000.7,0008.77,0003.83,0003.29
2021-10-01 08:30:00,,0831.6,5.00,0.00,28.9,27.9,00.0,38.0,30.6,19.3,0001.0,0008.92,0003.83,0003.29
2021-10-01 08:31:00,,0831.6,5.00,0.00,28.9,27.9,00.0,38.0,30.6,19.3,0001.0,0009.21,0003.79,0003.28
2021-10-01 08:32:00,,0831.6,5.00,0.00,28.9,27.9,00.0,38.0,30.7,19.7,0001.0,0009.25,0003.80,0003.28
2021-10-01 08:33:00,,0831.6,5.00,0.00,28.9,27.9,00.0,38.0,30.6,19.9,0001.3,0008.62,0003.77,0003.28
2021-10-01 08:34:00,,0831.6,5.01,0.00,28.9,27.9,00.0,38.0,30.6,19.9,0000.5,0008.46,0003.76,0003.28
2021-10-01 08:35:00,,0831.6,4.99,0.00,28.9,27.9,00.0,38.0,30.6,19.9,0000.3,0008.49,0003.78,0003.28
2021-10-01 08:36:00,,0831.5,5.00,0.00,28.9,27.9,00.0,38.0,30.6,20.0,0000.4,0007.71,0003.79,0003.29
2021-10-01 08:37:00,,0831.5,5.00,0.00,28.9,27.9,00.0,38.0,30.6,20.2,0000.3,0007.80,0003.85,0003.30
2021-10-01 08:38:00,,0831.5,4.99,0.00,28.9,27.9,00.0,38.0,30.6,20.4,0000.0,0008.08,0003.92,0003.32
2021-10-01 08:39:00,,0831.5,5.00,0.00,28.9,27.9,00.0,38.0,30.6,19.9,0000.0,0008.09,0003.95,0003.34
2021-10-01 08:40:00,,0831.5,4.99,0.00,28.9,27.9,00.0,38.0,30.6,19.3,0000.1,0008.07,0003.98,0003.37
2021-10-01 08:41:00,,0831.5,5.00,0.00,28.9,27.9,00.0,38.0,30.6,19.1,0000.3,0008.03,0004.00,0003.39
2021-10-01 08:42:00,,0831.5,5.01,0.00,28.9,27.9,00.0,38.0,30.6,19.5,0000.0,0007.59,0004.02,0003.41
2021-10-01 08:43:00,,0831.4,4.99,0.00,28.9,27.9,00.0,38.0,30.6,20.1,0000.0,0007.49,0004.04,0003.44
2021-10-01 08:44:00,,0831.4,5.00,0.00,28.9,27.9,00.0,38.0,30.6,20.0,0000.0,0007.50,0004.07,0003.47
2021-10-01 08:45:00,,0831.5,5.00,0.00,28.9,27.9,00.0,38.0,30.6,19.8,0001.6,0007.56,0004.09,0003.49
2021-10-01 08:46:00,,0831.4,5.00,0.00,28.9,27.9,00.0,38.0,30.6,19.7,0001.2,0008.11,0004.16,0003.51
2021-10-01 08:47:00,,0831.4,4.98,0.00,28.9,27.9,00.0,38.0,30.6,19.7,0000.4,0008.40,0004.17,0003.51
2021-10-01 08:48:00,,0831.3,5.01,0.00,28.9,27.9,00.0,38.0,30.6,19.6,0001.2,0008.78,0004.19,0003.51
2021-10-01 08:49:00,,0831.3,4.99,0.00,28.9,27.9,00.0,38.0,30.5,19.6,0002.2,0008.51,0004.13,0003.50
2021-10-01 08:50:00,,0831.4,5.00,0.00,28.8,27.9,00.0,38.0,30.6,19.6,0002.4,0008.63,0004.14,0003.51
2021-10-01 08:51:00,,0831.3,5.01,0.00,28.8,27.9,00.0,38.0,30.6,19.5,0000.5,0008.75,0004.15,0003.49
2021-10-01 08:52:00,,0831.2,4.98,0.00,28.8,27.9,00.0,38.0,30.6,19.5,0000.0,0008.90,0004.16,0003.49
2021-10-01 08:53:00,,0831.3,5.00,0.00,28.8,27.9,00.0,38.0,30.6,19.7,0000.0,0009.34,0004.15,0003.48
2021-10-01 08:54:00,,0831.2,5.00,0.00,28.8,27.9,00.0,38.0,30.6,19.7,0000.0,0009.51,0004.08,0003.45
2021-10-01 08:55:00,,0831.2,4.99,0.00,28.8,27.9,00.0,38.0,30.6,19.4,0000.0,0009.83,0004.09,0003.42
2021-10-01 08:56:00,,0831.2,5.01,0.00,28.8,27.9,00.0,38.0,30.6,19.2,0000.0,0009.98,0004.09,0003.41
2021-10-01 08:57:00,,0831.2,4.99,0.00,28.8,27.9,00.0,38.0,30.6,19.1,0000.0,0009.70,0004.03,0003.39
2021-10-01 08:58:00,,0831.2,4.99,0.00,28.8,27.9,00.0,38.0,30.6,19.2,0000.0,0009.57,0004.02,0003.37
2021-10-01 08:59:00,,0831.2,4.99,0.00,28.8,27.9,00.0,38.0,30.6,19.3,0000.0,0009.15,0003.99,0003.36
